Regional Weather Roundup
Issued by NWS

Home | Current Version | Previous Version | Graphics & Text | Print | Product List | Glossary Off
Versions: 1 2 3 4 5 6 7 8 9 10 11 12 13 14 15 16 17 18 19 20 21 22 23 24 25 26 27 28 29 30 31 32 33 34 35 36 37 38 39 40 41 42 43 44 45 46 47 48 49 50

000
ASUS43 KDMX 251907
RWRIA

WEATHER ROUNDUP FOR IOWA
NATIONAL WEATHER SERVICE DES MOINES IA
100 PM CST TUE NOV 25 2014

NOTE: "FAIR" INDICATES FEW OR NO CLOUDS BELOW 12,000 FEET WITH NO
SIGNIFICANT WEATHER AND/OR OBSTRUCTIONS TO VISIBILITY.

* - THESE STATIONS ARE NOT NWS STATIONS...THUS NOT UNDER NWS
QUALITY CONTROL.  THEY ALSO DO NOT REPORT WEATHER SUCH
AS PRECIPITATION OR FOG.

IAZ001>003-012>014-020>022-031>034-043>046-252000-
   NORTHWEST IOWA

CITY           SKY/WX    TMP DP  RH WIND       PRES   REMARKS
CARROLL *      SUNNY     34  10  37 SW8       30.05F WCI  27
CHEROKEE *     SUNNY     34  12  40 SW10      30.01F WCI  26
DENISON *      SUNNY     37  12  35 S12       30.01F WCI  30
LE MARS *      SUNNY     36  18  48 S10       30.00F WCI  28
ORANGE CITY *  MOSUNNY   36  14  41 S13       29.98F WCI  27
SHELDON *      SUNNY     34  14  44 S14       29.97F WCI  24
SIOUX CITY     MOSUNNY   40  21  46 S12       30.01F WCI  33
SPENCER        MOSUNNY   33  13  43 SW10      30.02F WCI  25
STORM LAKE *   MOSUNNY   34  12  40 SW10      30.02F WCI  26
$$

IAZ055>058-069>071-079>083-090>094-252000-
   SOUTHWEST IOWA

CITY           SKY/WX    TMP DP  RH WIND       PRES   REMARKS
ATLANTIC *     SUNNY     36  10  35 SW12      30.06F WCI  27
AUDUBON *      SUNNY     36   7  30 S9        30.06F WCI  29
CLARINDA *     SUNNY     37  10  32 SW9       30.12F WCI  31
COUNCIL BLFS * SUNNY     37  18  44 S9        30.04F WCI  31
CRESTON *      SUNNY     34   9  35 SW8       30.09F WCI  27
HARLAN  *      SUNNY     37  12  35 S12G22    30.08F WCI  30
LAMONI         SUNNY     34  11  38 SW8       30.11F WCI  27
RED OAK *      SUNNY     37  12  35 SW8       30.08F WCI  31
SHENANDOAH *   SUNNY     39  14  35 S9        30.10F WCI  33
$$

IAZ047>049-059>061-072>074-084-252000-
   CENTRAL IOWA

CITY           SKY/WX    TMP DP  RH WIND       PRES   REMARKS
AMES           SUNNY     30  11  45 W9        30.10F WCI  22
ANKENY *       SUNNY     32   9  37 VRB6      30.11F WCI  26
CHARITON *     SUNNY     34  12  40 VRB6      30.11F WCI  29
DES MOINES     MOSUNNY   34   8  33 W6        30.11F WCI  29
GRINNELL*      SUNNY     28  19  69 SW6       30.11S WCI  22
KNOXVILLE *    SUNNY     32  12  43 W8        30.10F WCI  25
MARSHALLTOWN   SUNNY     26  18  71 W7        30.09F WCI  18
PELLA *        SUNNY     32  18  55 W6        30.13F WCI  26
PERRY *          N/A     34   9  35 S5        30.08F WCI  30
$$

IAZ004>006-015-016-023>025-035-036-252000-
   NORTH CENTRAL IOWA

CITY           SKY/WX    TMP DP  RH WIND       PRES   REMARKS
ALGONA *       SUNNY     30   9  40 S8        30.05F WCI  23
CLARION *      SUNNY     30  10  43 SW8       30.07F WCI  23
ESTHERVILLE    PTSUNNY   31   8  38 S9G16     30.01F WCI  23
FORT DODGE *   SUNNY     30   9  40 SW6       30.07F WCI  24
MASON CITY     PTSUNNY   25   9  50 W6        30.08F WCI  18
FOREST CITY *  SUNNY     28  14  54 SW5       30.06F WCI  23
IOWA FALLS *     N/A     28  16  59 SW7       30.09F WCI  21
$$

IAZ007>011-017>019-026>030-037>042-050>054-066-252000-
   NORTHEAST IOWA

CITY           SKY/WX    TMP DP  RH WIND       PRES   REMARKS
CEDAR RAPIDS   SUNNY     25  18  74 W6        30.11S WCI  18
CHARLES CITY * SUNNY     21  12  68 W6        30.09S WCI  14
CLINTON *      SUNNY     21  12  68 W8        30.15S WCI  12
DECORAH *      SUNNY     19  10  68 W8        30.07S WCI   9
DUBUQUE        SUNNY     21  14  74 W13       30.08S WCI   9
MONTICELLO *   SUNNY     23  16  74 W9        30.11S WCI  13
OELWEIN *      SUNNY     19  12  73 W9        30.10S WCI   9
WATERLOO       SUNNY     21  12  68 W9        30.11S WCI  11
$$

IAZ064-065-067-068-078-252000-
   EAST CENTRAL IOWA

CITY           SKY/WX    TMP DP  RH WIND       PRES   REMARKS
DAVENPORT      SUNNY     22  14  71 W12       30.13S WCI  10
IOWA CITY      SUNNY     26  19  74 SW8       30.14  WCI  18
MT. PLEASANT * SUNNY     28  19  69 SW8       30.14F WCI  20
MUSCATINE *    SUNNY     27  18  69 W10       30.15F WCI  17
QUAD CITIES    SUNNY     24  15  68 W8        30.13F WCI  15
$$

IAZ062-063-075>077-085>089-095>099-252000-
   SOUTHEAST IOWA

CITY           SKY/WX    TMP DP  RH WIND       PRES   REMARKS
BURLINGTON     SUNNY     27  20  75 SW7       30.14F WCI  19
FAIRFIELD *    SUNNY     28  19  69 SW7       30.13F WCI  21
FORT MADISON * SUNNY     30  21  69 W3        30.15S
KEOKUK *       SUNNY     32  21  64 SW7       30.14F WCI  26
OSKALOOSA *      N/A     30  19  64 W8        30.12F WCI  23
CENTERVILLE *  SUNNY     32  18  55 SW7       30.13F WCI  26
OTTUMWA        SUNNY     31  18  58 SW8       30.12F WCI  23
WASHINGTON *   SUNNY     27  23  86 W9        30.13F WCI  17
$$

ABBREVIATIONS USED IN REMARKS
   TC - TEMPERATURES IN CELSIUS
  WCI - WIND CHILL INDEX
   HX - HEAT INDEX
  VSB - VISIBILITY
$$



USA.gov is the U.S. government's official web portal to all federal, state and local government web resources and services.